,,,PA_Meas_PMT16A,,PR_Meas_QMR101_102,,RH_Meas_QMH101,,SR_Meas_QMS101,,TA_Meas_QMH101,,GenWind,,GenWind,
date,time,status,PA,status,PR,status,RH,status,SR,status,TA,status,DirAvg,status,SpdAvg,
2011-07-20, 00:00:04,VALID,1000.99,VALID,0,VALID,76.1818,VALID,0,VALID,24.8917,VALID,95,VALID,0.855078,
2011-07-20, 00:01:04,VALID,1001,VALID,0,VALID,76.4717,VALID,0,VALID,24.8722,VALID,95,VALID,0.758984,
2011-07-20, 00:02:04,VALID,1001,VALID,0,VALID,76.5632,VALID,0,VALID,24.8527,VALID,95,VALID,0.445703,
2011-07-20, 00:03:04,VALID,1001,VALID,0,VALID,78.0358,VALID,0,VALID,24.8117,VALID,95,VALID,0.345703,
2011-07-20, 00:04:04,VALID,1000.98,VALID,0,VALID,78.5317,VALID,0,VALID,24.7941,VALID,95,VALID,0.189063,
2011-07-20, 00:05:04,VALID,1000.98,VALID,0,VALID,78.524,VALID,0,VALID,24.7551,VALID,95,VALID,0.176953,
2011-07-20, 00:06:04,VALID,1000.98,VALID,0,VALID,78.2112,VALID,0,VALID,24.6751,VALID,95,VALID,0.286328,
2011-07-20, 00:07:04,VALID,1000.97,VALID,0,VALID,78.4172,VALID,0,VALID,24.6575,VALID,95,VALID,0.241406,
2011-07-20, 00:08:04,VALID,1000.98,VALID,0,VALID,77.4025,VALID,0,VALID,24.5989,VALID,95,VALID,0.350391,
2011-07-20, 00:09:04,VALID,1000.96,VALID,0,VALID,78.0129,VALID,0,VALID,24.5775,VALID,95,VALID,0.388281,
2011-07-20, 00:10:04,VALID,1000.98,VALID,0,VALID,77.4712,VALID,0,VALID,24.5794,VALID,95,VALID,0.539844,
2011-07-20, 00:11:04,VALID,1000.97,VALID,0,VALID,77.4864,VALID,0,VALID,24.5599,VALID,95,VALID,0.523047,
2011-07-20, 00:12:04,VALID,1000.93,VALID,0,VALID,77.0363,VALID,0,VALID,24.5794,VALID,95,VALID,0.356641,
2011-07-20, 00:13:04,VALID,1000.96,VALID,0,VALID,77.0821,VALID,0,VALID,24.6184,VALID,95,VALID,0.259375,
2011-07-20, 00:14:04,VALID,1000.93,VALID,0,VALID,77.288,VALID,0,VALID,24.638,VALID,95,VALID,0.237109,
2011-07-20, 00:15:04,VALID,1000.93,VALID,0,VALID,77.3567,VALID,0,VALID,24.6575,VALID,95,VALID,0.418359,
2011-07-20, 00:16:04,VALID,1000.93,VALID,0,VALID,77.4254,VALID,0,VALID,24.677,VALID,95,VALID,0.31875,
2011-07-20, 00:17:04,VALID,1000.96,VALID,0,VALID,77.4864,VALID,0,VALID,24.6556,VALID,95,VALID,0.426172,
2011-07-20, 00:18:04,VALID,1000.94,VALID,0,VALID,77.6695,VALID,0,VALID,24.6556,VALID,95,VALID,0.333594,
2011-07-20, 00:19:04,VALID,1000.93,VALID,0,VALID,77.4788,VALID,0,VALID,24.6965,VALID,95,VALID,0.333984,
2011-07-20, 00:20:04,VALID,1000.96,VALID,0,VALID,77.3415,VALID,0,VALID,24.7142,VALID,95,VALID,0.234766,
2011-07-20, 00:21:04,VALID,1000.96,VALID,0,VALID,77.288,VALID,0,VALID,24.7142,VALID,148,VALID,0.691406,
2011-07-20, 00:22:04,VALID,1000.95,VALID,0,VALID,77.1965,VALID,0,VALID,24.7551,VALID,148,VALID,0.364062,
2011-07-20, 00:23:04,VALID,1000.97,VALID,0,VALID,77.2423,VALID,0,VALID,24.7551,VALID,148,VALID,0.206641,
2011-07-20, 00:24:04,VALID,1000.98,VALID,0,VALID,77.0515,VALID,0,VALID,24.7356,VALID,148,VALID,0.205469,
2011-07-20, 00:25:04,VALID,1000.98,VALID,0,VALID,77.0363,VALID,0,VALID,24.7551,VALID,148,VALID,0.515625,
2011-07-20, 00:26:04,VALID,1000.94,VALID,0,VALID,76.9676,VALID,0,VALID,24.7551,VALID,148,VALID,0.587891,
2011-07-20, 00:27:04,VALID,1000.93,VALID,0,VALID,76.609,VALID,0,VALID,24.7532,VALID,148,VALID,0.6,
2011-07-20, 00:28:04,VALID,1000.88,VALID,0,VALID,76.6395,VALID,0,VALID,24.7922,VALID,148,VALID,0.641016,
2011-07-20, 00:29:04,VALID,1000.89,VALID,0,VALID,76.8761,VALID,0,VALID,24.8313,VALID,154,VALID,0.502734,
2011-07-20, 00:30:04,VALID,1000.84,VALID,0,VALID,77.3872,VALID,0,VALID,24.8332,VALID,162,VALID,0.432813,
2011-07-20, 00:31:04,VALID,1000.83,VALID,0,VALID,77.3186,VALID,0,VALID,24.8136,VALID,162,VALID,0.142969,
2011-07-20, 00:32:04,VALID,1000.77,VALID,0,VALID,77.2652,VALID,0,VALID,24.7746,VALID,162,VALID,0.336719,
2011-07-20, 00:33:04,VALID,1000.75,VALID,0,VALID,77.7229,VALID,0,VALID,24.7532,VALID,164,VALID,0.502734,
2011-07-20, 00:34:04,VALID,1000.73,VALID,0,VALID,77.2499,VALID,0,VALID,24.7532,VALID,167,VALID,0.673828,
2011-07-20, 00:35:04,VALID,1000.72,VALID,0,VALID,77.4178,VALID,0,VALID,24.7337,VALID,176,VALID,0.594922,
2011-07-20, 00:36:04,VALID,1000.73,VALID,0,VALID,77.2575,VALID,0,VALID,24.7551,VALID,174,VALID,0.788281,
2011-07-20, 00:37:04,VALID,1000.69,VALID,0,VALID,76.8761,VALID,0,VALID,24.7551,VALID,174,VALID,0.565625,
2011-07-20, 00:38:04,VALID,1000.69,VALID,0,VALID,76.3649,VALID,0,VALID,24.7337,VALID,159,VALID,0.992578,
2011-07-20, 00:39:04,VALID,1000.68,VALID,0,VALID,76.0063,VALID,0,VALID,24.7727,VALID,159,VALID,0.687891,
2011-07-20, 00:40:04,VALID,1000.66,VALID,0,VALID,76.2504,VALID,0,VALID,24.8722,VALID,154,VALID,0.794141,
2011-07-20, 00:41:04,VALID,1000.66,VALID,0,VALID,75.9376,VALID,0,VALID,24.8703,VALID,151,VALID,0.864062,
2011-07-20, 00:42:04,VALID,1000.64,VALID,0,VALID,76.5938,VALID,0,VALID,24.8917,VALID,133,VALID,0.784766,
2011-07-20, 00:43:04,VALID,1000.61,VALID,0,VALID,77.166,VALID,0,VALID,24.8313,VALID,133,VALID,0.858203,
2011-07-20, 00:44:05,VALID,1000.59,VALID,0,VALID,77.3033,VALID,0,VALID,24.7941,VALID,133,VALID,1.02891,
2011-07-20, 00:45:05,VALID,1000.55,VALID,0,VALID,77.3109,VALID,0,VALID,24.7142,VALID,126,VALID,1.03945,
2011-07-20, 00:46:05,VALID,1000.49,VALID,0,VALID,77.6238,VALID,0,VALID,24.6965,VALID,126,VALID,0.927344,
2011-07-20, 00:47:05,VALID,1000.49,VALID,0,VALID,78.8445,VALID,0,VALID,24.6575,VALID,126,VALID,0.990625,
2011-07-20, 00:48:05,VALID,1000.48,VALID,0,VALID,79.2412,VALID,0,VALID,24.6184,VALID,126,VALID,0.848437,
2011-07-20, 00:49:05,VALID,1000.45,VALID,0,VALID,79.2489,VALID,0,VALID,24.5599,VALID,126,VALID,0.68125,
2011-07-20, 00:50:05,VALID,1000.44,VALID,0,VALID,79.5006,VALID,0,VALID,24.48,VALID,126,VALID,0.435937,
2011-07-20, 00:51:05,VALID,1000.42,VALID,0,VALID,79.7753,VALID,0,VALID,24.4818,VALID,126,VALID,0.527734,
2011-07-20, 00:52:05,VALID,1000.41,VALID,0,VALID,80.0881,VALID,0,VALID,24.4233,VALID,126,VALID,0.926953,
2011-07-20, 00:53:05,VALID,1000.4,VALID,0,VALID,79.9508,VALID,0,VALID,24.3842,VALID,126,VALID,0.844531,
2011-07-20, 00:54:05,VALID,1000.36,VALID,0,VALID,79.76,VALID,0,VALID,24.3842,VALID,117,VALID,0.828516,
2011-07-20, 00:55:05,VALID,1000.36,VALID,0,VALID,79.7372,VALID,0,VALID,24.4233,VALID,117,VALID,0.641406,
2011-07-20, 00:56:05,VALID,1000.36,VALID,0,VALID,79.7524,VALID,0,VALID,24.4623,VALID,117,VALID,0.396094,
2011-07-20, 00:57:05,VALID,1000.37,VALID,0,VALID,79.8211,VALID,0,VALID,24.4818,VALID,117,VALID,0.361719,
2011-07-20, 00:58:05,VALID,1000.37,VALID,0,VALID,80.0576,VALID,0,VALID,24.4818,VALID,117,VALID,0.306641,
2011-07-20, 00:59:05,VALID,1000.38,VALID,0,VALID,80.3399,VALID,0,VALID,24.4428,VALID,117,VALID,0.288281,
2011-07-20, 01:00:05,VALID,1000.39,VALID,0,VALID,80.523,VALID,0,VALID,24.3842,VALID,117,VALID,0.433984,
2011-07-20, 01:01:05,VALID,1000.36,VALID,0,VALID,81.4004,VALID,0,VALID,24.3647,VALID,45,VALID,0.680469,
2011-07-20, 01:02:05,VALID,1000.4,VALID,0,VALID,81.9726,VALID,0,VALID,24.2866,VALID,8,VALID,0.5875,
2011-07-20, 01:03:05,VALID,1000.38,VALID,0,VALID,82.6135,VALID,0,VALID,24.2281,VALID,354,VALID,0.750781,
2011-07-20, 01:04:05,VALID,1000.38,VALID,0,VALID,83.1323,VALID,0,VALID,24.15,VALID,354,VALID,0.728125,
2011-07-20, 01:05:05,VALID,1000.39,VALID,0,VALID,83.3612,VALID,0,VALID,24.0915,VALID,354,VALID,0.649219,
2011-07-20, 01:06:05,VALID,1000.39,VALID,0,VALID,83.3841,VALID,0,VALID,24.0525,VALID,354,VALID,0.676562,
2011-07-20, 01:07:05,VALID,1000.37,VALID,0,VALID,83.0789,VALID,0,VALID,24.0525,VALID,354,VALID,0.708203,
2011-07-20, 01:08:05,VALID,1000.36,VALID,0,VALID,83.3307,VALID,0,VALID,24.072,VALID,354,VALID,0.653906,
2011-07-20, 01:09:05,VALID,1000.4,VALID,0,VALID,83.5901,VALID,0,VALID,24.0311,VALID,354,VALID,0.866016,
2011-07-20, 01:10:05,VALID,1000.39,VALID,0,VALID,84.1471,VALID,0,VALID,24.0134,VALID,354,VALID,0.676953,
2011-07-20, 01:11:05,VALID,1000.41,VALID,0,VALID,84.498,VALID,0,VALID,23.9744,VALID,354,VALID,0.701563,
2011-07-20, 01:12:05,VALID,1000.42,VALID,0,VALID,84.7422,VALID,0,VALID,23.9354,VALID,354,VALID,0.656641,
2011-07-20, 01:13:05,VALID,1000.45,VALID,0,VALID,85.0779,VALID,0,VALID,23.875,VALID,354,VALID,0.611328,
2011-07-20, 01:14:05,VALID,1000.44,VALID,0,VALID,84.9558,VALID,0,VALID,23.8573,VALID,345,VALID,0.654688,
2011-07-20, 01:15:05,VALID,1000.49,VALID,0,VALID,84.9253,VALID,0,VALID,23.8768,VALID,345,VALID,0.614844,
2011-07-20, 01:16:05,VALID,1000.49,VALID,0,VALID,84.2692,VALID,0,VALID,23.836,VALID,324,VALID,0.672266,
2011-07-20, 01:17:05,VALID,1000.51,VALID,0,VALID,84.1089,VALID,0,VALID,23.8963,VALID,321,VALID,0.666406,
2011-07-20, 01:18:05,VALID,1000.51,VALID,0,VALID,83.5215,VALID,0,VALID,23.8963,VALID,321,VALID,0.658203,
2011-07-20, 01:19:05,VALID,1000.53,VALID,0,VALID,83.3307,VALID,0,VALID,23.9354,VALID,321,VALID,0.647266,
2011-07-20, 01:20:05,VALID,1000.51,VALID,0,VALID,83.6359,VALID,0,VALID,23.9549,VALID,321,VALID,0.469922,
2011-07-20, 01:21:05,VALID,1000.51,VALID,0,VALID,83.6435,VALID,0,VALID,23.9549,VALID,321,VALID,0.386328,
2011-07-20, 01:22:05,VALID,1000.5,VALID,0,VALID,83.9716,VALID,0,VALID,23.9549,VALID,321,VALID,0.441406,
2011-07-20, 01:23:05,VALID,1000.49,VALID,0,VALID,83.8037,VALID,0,VALID,23.9354,VALID,321,VALID,0.451562,
2011-07-20, 01:24:05,VALID,1000.52,VALID,0,VALID,83.6359,VALID,0,VALID,23.914,VALID,321,VALID,0.646875,
2011-07-20, 01:25:05,VALID,1000.48,VALID,0,VALID,83.3841,VALID,0,VALID,23.9336,VALID,321,VALID,0.585547,
2011-07-20, 01:26:05,VALID,1000.47,VALID,0,VALID,83.0713,VALID,0,VALID,23.9744,VALID,321,VALID,0.573047,
2011-07-20, 01:27:05,VALID,1000.48,VALID,0,VALID,82.9416,VALID,0,VALID,23.9531,VALID,321,VALID,0.355469,
2011-07-20, 01:28:05,VALID,1000.43,VALID,0,VALID,82.8806,VALID,0,VALID,23.9744,VALID,321,VALID,0.385547,
2011-07-20, 01:29:05,VALID,1000.44,VALID,0,VALID,83.2849,VALID,0,VALID,23.9744,VALID,321,VALID,0.489062,
2011-07-20, 01:30:05,VALID,1000.42,VALID,0,VALID,83.4604,VALID,0,VALID,23.9726,VALID,321,VALID,0.492188,
2011-07-20, 01:31:05,VALID,1000.42,VALID,0,VALID,83.3765,VALID,0,VALID,23.9336,VALID,321,VALID,0.503906,
2011-07-20, 01:32:05,VALID,1000.39,VALID,0,VALID,83.5443,VALID,0,VALID,23.9159,VALID,321,VALID,0.385156,
2011-07-20, 01:33:05,VALID,1000.38,VALID,0,VALID,83.7046,VALID,0,VALID,23.8945,VALID,321,VALID,0.267578,
2011-07-20, 01:34:05,VALID,1000.38,VALID,0,VALID,83.7732,VALID,0,VALID,23.8963,VALID,321,VALID,0.189453,
2011-07-20, 01:35:05,VALID,1000.36,VALID,0,VALID,83.9563,VALID,0,VALID,23.8555,VALID,321,VALID,0.294141,
2011-07-20, 01:36:05,VALID,1000.35,VALID,0,VALID,84.6735,VALID,0,VALID,23.836,VALID,321,VALID,0.354688,
2011-07-20, 01:37:05,VALID,1000.35,VALID,0,VALID,84.8643,VALID,0,VALID,23.797,VALID,321,VALID,0.491016,
2011-07-20, 01:38:05,VALID,1000.34,VALID,0,VALID,85.1084,VALID,0,VALID,23.7597,VALID,321,VALID,0.6125,
2011-07-20, 01:39:05,VALID,1000.36,VALID,0,VALID,85.116,VALID,0,VALID,23.7207,VALID,321,VALID,0.705469,
2011-07-20, 01:40:05,VALID,1000.37,VALID,0,VALID,84.704,VALID,0,VALID,23.6604,VALID,321,VALID,0.558594,
2011-07-20, 01:41:05,VALID,1000.36,VALID,0,VALID,84.9634,VALID,0,VALID,23.6604,VALID,321,VALID,0.582422,
2011-07-20, 01:42:05,VALID,1000.34,VALID,0,VALID,85.5586,VALID,0,VALID,23.6817,VALID,321,VALID,0.758203,
2011-07-20, 01:43:05,VALID,1000.34,VALID,0,VALID,85.8561,VALID,0,VALID,23.6622,VALID,21,VALID,0.929297,
2011-07-20, 01:44:05,VALID,1000.35,VALID,0,VALID,86.146,VALID,0,VALID,23.6427,VALID,28,VALID,0.834375,
2011-07-20, 01:45:05,VALID,1000.35,VALID,0,VALID,86.3902,VALID,0,VALID,23.6036,VALID,28,VALID,0.783594,
2011-07-20, 01:46:05,VALID,1000.33,VALID,0,VALID,86.5046,VALID,0,VALID,23.5646,VALID,27,VALID,0.775,
2011-07-20, 01:47:05,VALID,1000.36,VALID,0,VALID,86.7411,VALID,0,VALID,23.5256,VALID,26,VALID,0.794922,
2011-07-20, 01:48:05,VALID,1000.34,VALID,0,VALID,86.848,VALID,0,VALID,23.4671,VALID,30,VALID,0.622266,
2011-07-20, 01:49:05,VALID,1000.32,VALID,0,VALID,87.0997,VALID,0,VALID,23.428,VALID,43,VALID,0.645703,
2011-07-20, 01:50:05,VALID,1000.3,VALID,0,VALID,87.3744,VALID,0,VALID,23.3872,VALID,43,VALID,0.382813,
2011-07-20, 01:51:05,VALID,1000.31,VALID,0,VALID,87.6414,VALID,0,VALID,23.4085,VALID,43,VALID,0.393359,
2011-07-20, 01:52:05,VALID,1000.3,VALID,0,VALID,87.8474,VALID,0,VALID,23.389,VALID,43,VALID,0.466797,
2011-07-20, 01:53:05,VALID,1000.26,VALID,0,VALID,87.9161,VALID,0,VALID,23.3287,VALID,43,VALID,0.644922,
2011-07-20, 01:54:05,VALID,1000.24,VALID,0,VALID,87.878,VALID,0,VALID,23.35,VALID,43,VALID,0.703516,
2011-07-20, 01:55:05,VALID,1000.24,VALID,0,VALID,87.9161,VALID,0.112286,VALID,23.35,VALID,43,VALID,0.825,
2011-07-20, 01:56:05,VALID,1000.2,VALID,0,VALID,87.9085,VALID,0,VALID,23.3305,VALID,43,VALID,0.688672,
2011-07-20, 01:57:05,VALID,1000.19,VALID,0,VALID,87.9543,VALID,0,VALID,23.3305,VALID,43,VALID,0.360156,
2011-07-20, 01:58:05,VALID,1000.18,VALID,0,VALID,88.0153,VALID,0,VALID,23.311,VALID,43,VALID,0.210156,
2011-07-20, 01:59:05,VALID,1000.18,VALID,0,VALID,88.084,VALID,0,VALID,23.311,VALID,43,VALID,0.0492188,
2011-07-20, 02:00:05,VALID,1000.17,VALID,0,VALID,88.0916,VALID,0,VALID,23.2719,VALID,43,VALID,0.494531,
2011-07-20, 02:01:05,VALID,1000.2,VALID,0,VALID,88.0687,VALID,0,VALID,23.2524,VALID,43,VALID,0.501562,
2011-07-20, 02:02:05,VALID,1000.18,VALID,0,VALID,87.9924,VALID,0,VALID,23.2737,VALID,43,VALID,0.175,
2011-07-20, 02:03:05,VALID,1000.18,VALID,0,VALID,87.9695,VALID,0,VALID,23.2719,VALID,43,VALID,0,
2011-07-20, 02:04:05,VALID,1000.16,VALID,0,VALID,87.9848,VALID,0,VALID,23.2524,VALID,43,VALID,0,
2011-07-20, 02:05:05,VALID,1000.15,VALID,0,VALID,87.9161,VALID,0,VALID,23.2524,VALID,43,VALID,0,
2011-07-20, 02:06:05,VALID,1000.15,VALID,0,VALID,87.8398,VALID,0,VALID,23.2524,VALID,43,VALID,0,
2011-07-20, 02:07:05,VALID,1000.14,VALID,0,VALID,87.8093,VALID,0,VALID,23.2329,VALID,43,VALID,0.370313,
2011-07-20, 02:08:05,VALID,1000.14,VALID,0,VALID,87.7406,VALID,0,VALID,23.2737,VALID,71,VALID,0.716797,
2011-07-20, 02:09:05,VALID,1000.16,VALID,0,VALID,87.6567,VALID,0,VALID,23.2719,VALID,109,VALID,0.849609,
2011-07-20, 02:10:05,VALID,1000.2,VALID,0,VALID,87.8322,VALID,0,VALID,23.3305,VALID,110,VALID,0.853125,
2011-07-20, 02:11:05,VALID,1000.21,VALID,0,VALID,87.8932,VALID,0,VALID,23.389,VALID,137,VALID,0.923047,
2011-07-20, 02:12:05,VALID,1000.14,VALID,0,VALID,87.9771,VALID,0,VALID,23.428,VALID,137,VALID,0.599219,
2011-07-20, 02:13:05,VALID,1000.18,VALID,0,VALID,88.0611,VALID,0,VALID,23.4475,VALID,137,VALID,0.373437,
2011-07-20, 02:14:05,VALID,1000.2,VALID,0,VALID,88.0916,VALID,0,VALID,23.4475,VALID,137,VALID,0.258203,
2011-07-20, 02:15:05,VALID,1000.18,VALID,0,VALID,88.0992,VALID,0,VALID,23.4671,VALID,137,VALID,0.336328,
2011-07-20, 02:16:05,VALID,1000.21,VALID,0,VALID,88.0763,VALID,0,VALID,23.4475,VALID,137,VALID,0.5,
2011-07-20, 02:17:05,VALID,1000.19,VALID,0,VALID,87.8246,VALID,0,VALID,23.4475,VALID,137,VALID,0.750781,
2011-07-20, 02:18:05,VALID,1000.18,VALID,0,VALID,87.6186,VALID,0,VALID,23.4475,VALID,121,VALID,0.876562,
2011-07-20, 02:19:05,VALID,1000.18,VALID,0,VALID,87.6338,VALID,0,VALID,23.4475,VALID,115,VALID,1.31133,
2011-07-20, 02:20:05,VALID,1000.14,VALID,0,VALID,87.9466,VALID,0,VALID,23.4671,VALID,105,VALID,1.06172,
2011-07-20, 02:21:05,VALID,1000.15,VALID,0,VALID,88.1984,VALID,0,VALID,23.4671,VALID,106,VALID,1.09297,
2011-07-20, 02:22:05,VALID,1000.14,VALID,0,VALID,88.2289,VALID,0,VALID,23.4475,VALID,108,VALID,0.956641,
2011-07-20, 02:23:05,VALID,1000.17,VALID,0,VALID,88.1603,VALID,0,VALID,23.428,VALID,109,VALID,0.968359,
2011-07-20, 02:24:05,VALID,1000.16,VALID,0,VALID,88.0534,VALID,0,VALID,23.428,VALID,109,VALID,1.02617,
2011-07-20, 02:25:05,VALID,1000.14,VALID,0,VALID,88.0077,VALID,0,VALID,23.4085,VALID,109,VALID,1.01758,
2011-07-20, 02:26:05,VALID,1000.16,VALID,0,VALID,87.9314,VALID,0,VALID,23.4493,VALID,110,VALID,0.936719,
2011-07-20, 02:27:05,VALID,1000.14,VALID,0,VALID,88.0306,VALID,0,VALID,23.4688,VALID,110,VALID,0.830078,
2011-07-20, 02:28:05,VALID,1000.13,VALID,0,VALID,88.0077,VALID,0,VALID,23.4475,VALID,110,VALID,0.775391,
2011-07-20, 02:29:05,VALID,1000.16,VALID,0,VALID,87.9543,VALID,0,VALID,23.4475,VALID,110,VALID,0.697266,
2011-07-20, 02:30:05,VALID,1000.16,VALID,0,VALID,87.8093,VALID,0,VALID,23.4688,VALID,110,VALID,0.636328,
2011-07-20, 02:31:05,VALID,1000.16,VALID,0,VALID,87.672,VALID,0,VALID,23.4671,VALID,110,VALID,0.540625,
2011-07-20, 02:32:05,VALID,1000.19,VALID,0,VALID,87.4736,VALID,0,VALID,23.4884,VALID,110,VALID,0.501172,
2011-07-20, 02:33:05,VALID,1000.18,VALID,0,VALID,87.3592,VALID,0,VALID,23.4475,VALID,110,VALID,0.545703,
2011-07-20, 02:34:05,VALID,1000.15,VALID,0,VALID,87.3668,VALID,0,VALID,23.4671,VALID,110,VALID,0.623828,
2011-07-20, 02:35:05,VALID,1000.16,VALID,0,VALID,87.4583,VALID,0,VALID,23.4671,VALID,110,VALID,0.224609,
2011-07-20, 02:36:05,VALID,1000.15,VALID,0,VALID,87.7101,VALID,0,VALID,23.4475,VALID,110,VALID,0.225781,
2011-07-20, 02:37:05,VALID,1000.16,VALID,0,VALID,87.794,VALID,0,VALID,23.4085,VALID,109,VALID,0.506641,
2011-07-20, 02:38:05,VALID,1000.16,VALID,0,VALID,87.6262,VALID,0,VALID,23.4085,VALID,104,VALID,0.446875,
2011-07-20, 02:39:05,VALID,1000.14,VALID,0,VALID,87.672,VALID,0,VALID,23.4085,VALID,104,VALID,0.377734,
2011-07-20, 02:40:05,VALID,1000.14,VALID,0,VALID,87.6643,VALID,0,VALID,23.4085,VALID,104,VALID,0.501172,
2011-07-20, 02:41:05,VALID,1000.15,VALID,0,VALID,87.6872,VALID,0,VALID,23.4085,VALID,104,VALID,0.600391,
2011-07-20, 02:42:05,VALID,1000.13,VALID,0,VALID,87.8017,VALID,0,VALID,23.4085,VALID,104,VALID,0.503516,
2011-07-20, 02:43:05,VALID,1000.15,VALID,0,VALID,87.8856,VALID,0,VALID,23.4085,VALID,104,VALID,0.340234,
2011-07-20, 02:44:05,VALID,1000.17,VALID,0,VALID,88.0153,VALID,0,VALID,23.389,VALID,104,VALID,0.181641,
2011-07-20, 02:45:05,VALID,1000.16,VALID,0,VALID,88.1297,VALID,0,VALID,23.389,VALID,104,VALID,0.230469,
2011-07-20, 02:46:05,VALID,1000.16,VALID,0,VALID,88.2289,VALID,0.112286,VALID,23.3677,VALID,104,VALID,0.384766,
2011-07-20, 02:47:05,VALID,1000.13,VALID,0,VALID,88.4731,VALID,0,VALID,23.3695,VALID,104,VALID,0.566406,
2011-07-20, 02:48:05,VALID,1000.16,VALID,0,VALID,88.6638,VALID,0,VALID,23.3287,VALID,104,VALID,0.65,
2011-07-20, 02:49:05,VALID,1000.13,VALID,0,VALID,88.7325,VALID,0,VALID,23.3092,VALID,104,VALID,0.627734,
2011-07-20, 02:50:05,VALID,1000.15,VALID,0,VALID,88.8546,VALID,0,VALID,23.311,VALID,104,VALID,0.473047,
2011-07-20, 02:51:05,VALID,1000.15,VALID,0,VALID,88.9766,VALID,0,VALID,23.311,VALID,104,VALID,0.380469,
2011-07-20, 02:52:05,VALID,1000.16,VALID,0,VALID,89.1597,VALID,0,VALID,23.2719,VALID,104,VALID,0.384375,
2011-07-20, 02:53:05,VALID,1000.17,VALID,0,VALID,89.2589,VALID,0,VALID,23.2329,VALID,104,VALID,0.620703,
2011-07-20, 02:54:05,VALID,1000.16,VALID,0,VALID,89.32,VALID,0,VALID,23.2329,VALID,104,VALID,0.653125,
2011-07-20, 02:55:05,VALID,1000.17,VALID,0,VALID,89.3963,VALID,0,VALID,23.2329,VALID,104,VALID,0.664453,
2011-07-20, 02:56:05,VALID,1000.17,VALID,0,VALID,89.526,VALID,0,VALID,23.2329,VALID,64,VALID,0.722266,
2011-07-20, 02:57:05,VALID,1000.19,VALID,0,VALID,89.6862,VALID,0,VALID,23.2329,VALID,347,VALID,0.773438,
2011-07-20, 02:58:05,VALID,1000.19,VALID,0,VALID,89.7777,VALID,0,VALID,23.2329,VALID,340,VALID,0.550781,
2011-07-20, 02:59:05,VALID,1000.19,VALID,0,VALID,89.7396,VALID,0,VALID,23.2117,VALID,340,VALID,0.743359,
2011-07-20, 03:00:05,VALID,1000.17,VALID,0,VALID,89.7091,VALID,0,VALID,23.2134,VALID,340,VALID,0.899609,
2011-07-20, 03:01:05,VALID,1000.2,VALID,0,VALID,89.6862,VALID,0,VALID,23.1921,VALID,337,VALID,0.551953,
2011-07-20, 03:02:05,VALID,1000.2,VALID,0,VALID,89.5794,VALID,0,VALID,23.2134,VALID,327,VALID,0.690234,
2011-07-20, 03:03:05,VALID,1000.19,VALID,0,VALID,89.4191,VALID,0,VALID,23.2329,VALID,325,VALID,0.553125,
2011-07-20, 03:04:05,VALID,1000.2,VALID,0,VALID,89.2818,VALID,0,VALID,23.2329,VALID,325,VALID,0.54375,
2011-07-20, 03:05:05,VALID,1000.21,VALID,0,VALID,89.1979,VALID,0,VALID,23.2524,VALID,325,VALID,0.339453,
2011-07-20, 03:06:05,VALID,1000.21,VALID,0,VALID,89.0377,VALID,0,VALID,23.2312,VALID,325,VALID,0.183984,
2011-07-20, 03:07:05,VALID,1000.2,VALID,0,VALID,88.9156,VALID,0,VALID,23.2312,VALID,325,VALID,0,
2011-07-20, 03:08:05,VALID,1000.21,VALID,0,VALID,88.8469,VALID,0,VALID,23.2312,VALID,325,VALID,0.351563,
2011-07-20, 03:09:05,VALID,1000.21,VALID,0,VALID,88.7554,VALID,0,VALID,23.2312,VALID,325,VALID,0.239453,
2011-07-20, 03:10:05,VALID,1000.24,VALID,0,VALID,88.7325,VALID,0.112286,VALID,23.2702,VALID,325,VALID,0.333203,
2011-07-20, 03:11:05,VALID,1000.27,VALID,0,VALID,88.7172,VALID,0,VALID,23.2915,VALID,325,VALID,0.437109,
2011-07-20, 03:12:05,VALID,1000.29,VALID,0,VALID,88.6333,VALID,0,VALID,23.311,VALID,325,VALID,0.389062,
2011-07-20, 03:13:05,VALID,1000.29,VALID,0,VALID,88.6943,VALID,0.112286,VALID,23.2897,VALID,325,VALID,0.667969,
2011-07-20, 03:14:05,VALID,1000.32,VALID,0,VALID,88.5723,VALID,0,VALID,23.311,VALID,334,VALID,0.823047,
2011-07-20, 03:15:05,VALID,1000.35,VALID,0,VALID,88.4578,VALID,0,VALID,23.311,VALID,334,VALID,0.763672,
2011-07-20, 03:16:05,VALID,1000.32,VALID,0,VALID,88.3205,VALID,0,VALID,23.2915,VALID,334,VALID,0.827344,
2011-07-20, 03:17:05,VALID,1000.37,VALID,0,VALID,88.206,VALID,0,VALID,23.2897,VALID,334,VALID,0.633594,
2011-07-20, 03:18:05,VALID,1000.36,VALID,0,VALID,88.1679,VALID,0,VALID,23.3305,VALID,334,VALID,0.776563,
2011-07-20, 03:19:05,VALID,1000.39,VALID,0,VALID,88.1297,VALID,0,VALID,23.35,VALID,334,VALID,0.50625,
2011-07-20, 03:20:05,VALID,1000.38,VALID,0,VALID,88.2594,VALID,0.112286,VALID,23.35,VALID,334,VALID,0.571094,
2011-07-20, 03:21:05,VALID,1000.4,VALID,0,VALID,88.3129,VALID,0.112286,VALID,23.35,VALID,322,VALID,0.683594,
2011-07-20, 03:22:05,VALID,1000.43,VALID,0,VALID,88.412,VALID,0,VALID,23.3092,VALID,322,VALID,0.472656,
2011-07-20, 03:23:05,VALID,1000.45,VALID,0,VALID,88.5265,VALID,0,VALID,23.3305,VALID,322,VALID,0.250781,
2011-07-20, 03:24:05,VALID,1000.45,VALID,0,VALID,88.5875,VALID,0,VALID,23.311,VALID,322,VALID,0.0410156,
2011-07-20, 03:25:05,VALID,1000.46,VALID,0,VALID,88.5112,VALID,0,VALID,23.311,VALID,322,VALID,0.0832031,
2011-07-20, 03:26:05,VALID,1000.46,VALID,0,VALID,88.4578,VALID,0,VALID,23.311,VALID,322,VALID,0,
2011-07-20, 03:27:05,VALID,1000.46,VALID,0,VALID,88.4731,VALID,0,VALID,23.311,VALID,322,VALID,0,
2011-07-20, 03:28:05,VALID,1000.48,VALID,0,VALID,88.4807,VALID,0,VALID,23.2702,VALID,322,VALID,0,
2011-07-20, 03:29:05,VALID,1000.5,VALID,0,VALID,88.5341,VALID,0,VALID,23.2915,VALID,322,VALID,0,
2011-07-20, 03:30:04,VALID,1000.52,VALID,0,VALID,88.557,VALID,0,VALID,23.2932,VALID,322,VALID,0,
2011-07-20, 03:31:04,VALID,1000.5,VALID,0,VALID,88.5875,VALID,0,VALID,23.2932,VALID,322,VALID,0,
2011-07-20, 03:32:04,VALID,1000.51,VALID,0,VALID,88.5494,VALID,0,VALID,23.2524,VALID,322,VALID,0,
2011-07-20, 03:33:04,VALID,1000.49,VALID,0,VALID,88.557,VALID,0,VALID,23.2737,VALID,322,VALID,0,
2011-07-20, 03:34:04,VALID,1000.51,VALID,0,VALID,88.5875,VALID,0,VALID,23.2737,VALID,322,VALID,0,
2011-07-20, 03:35:04,VALID,1000.53,VALID,0,VALID,88.5799,VALID,0,VALID,23.2542,VALID,322,VALID,0,
2011-07-20, 03:36:04,VALID,1000.52,VALID,0,VALID,88.5646,VALID,0,VALID,23.2542,VALID,322,VALID,0,
2011-07-20, 03:37:04,VALID,1000.54,VALID,0,VALID,88.6104,VALID,0,VALID,23.2542,VALID,322,VALID,0.296875,
2011-07-20, 03:38:04,VALID,1000.56,VALID,0,VALID,88.4502,VALID,0,VALID,23.2329,VALID,322,VALID,0.501953,
2011-07-20, 03:39:04,VALID,1000.57,VALID,0,VALID,88.1145,VALID,0,VALID,23.2932,VALID,322,VALID,0.278125,
2011-07-20, 03:40:04,VALID,1000.58,VALID,0,VALID,87.8703,VALID,0,VALID,23.3127,VALID,322,VALID,0.289063,
2011-07-20, 03:41:04,VALID,1000.58,VALID,0,VALID,87.8398,VALID,0,VALID,23.3305,VALID,322,VALID,0.368359,
2011-07-20, 03:42:04,VALID,1000.57,VALID,0,VALID,87.7635,VALID,0,VALID,23.3305,VALID,61,VALID,0.926953,
2011-07-20, 03:43:04,VALID,1000.58,VALID,0,VALID,87.8017,VALID,0,VALID,23.35,VALID,65,VALID,1.00352,
2011-07-20, 03:44:04,VALID,1000.59,VALID,0,VALID,87.8856,VALID,0,VALID,23.3713,VALID,64,VALID,1.17344,
2011-07-20, 03:45:04,VALID,1000.62,VALID,0,VALID,88.0382,VALID,0,VALID,23.389,VALID,65,VALID,1.18789,
2011-07-20, 03:46:04,VALID,1000.58,VALID,0,VALID,88.2594,VALID,0,VALID,23.3695,VALID,64,VALID,1.18672,